Time,TemperatureF,DewpointF,PressureIn,WindDirection,WindDirectionDegrees,WindSpeedMPH,WindSpeedGustMPH,Humidity,HourlyPrecipIn,Conditions,Clouds,dailyrainin,SoftwareType,DateUTC
2013-01-09 00:01:00,26.7,22.0,30.69,NNW,330,1.0,3.0,81,0.00,,,0.04,weatherlink.com 1.10,2013-01-09 05:01:00,
2013-01-09 00:16:00,26.6,21.0,30.69,NNW,335,2.0,3.0,80,0.00,,,0.04,weatherlink.com 1.10,2013-01-09 05:16:00,
2013-01-09 00:31:00,26.1,21.0,30.69,NNW,335,2.0,2.0,80,0.00,,,0.04,weatherlink.com 1.10,2013-01-09 05:31:00,
2013-01-09 00:46:00,25.6,20.0,30.69,NNW,330,3.0,4.0,80,0.00,,,0.04,weatherlink.com 1.10,2013-01-09 05:46:00,
2013-01-09 01:01:00,25.3,20.0,30.68,NNW,332,2.0,3.0,81,0.00,,,0.04,weatherlink.com 1.10,2013-01-09 06:01:00,
2013-01-09 01:16:00,25.4,20.0,30.67,NNW,333,3.0,3.0,80,0.00,,,0.00,weatherlink.com 1.10,2013-01-09 06:16:00,
2013-01-09 01:31:00,25.3,20.0,30.67,NNW,335,3.0,3.0,80,0.00,,,0.00,weatherlink.com 1.10,2013-01-09 06:31:00,
2013-01-09 01:46:00,25.4,20.0,30.68,NNW,329,0.0,3.0,81,0.00,,,0.00,weatherlink.com 1.10,2013-01-09 06:46:00,
2013-01-09 02:01:00,25.0,20.0,30.68,NNW,330,1.0,3.0,80,0.00,,,0.00,weatherlink.com 1.10,2013-01-09 07:01:00,
2013-01-09 02:16:00,25.2,20.0,30.68,NNW,333,2.0,2.0,79,0.00,,,0.00,weatherlink.com 1.10,2013-01-09 07:16:00,
2013-01-09 02:31:00,25.8,20.0,30.67,NNW,329,2.0,2.0,77,0.00,,,0.00,weatherlink.com 1.10,2013-01-09 07:31:00,
2013-01-09 02:46:00,25.1,19.0,30.68,NNW,329,2.0,3.0,78,0.00,,,0.00,weatherlink.com 1.10,2013-01-09 07:46:00,
2013-01-09 03:01:00,24.6,19.0,30.67,NNW,331,2.0,3.0,78,0.00,,,0.00,weatherlink.com 1.10,2013-01-09 08:01:00,
2013-01-09 03:16:00,24.4,19.0,30.67,NNW,332,2.0,2.0,79,0.00,,,0.00,weatherlink.com 1.10,2013-01-09 08:16:00,
2013-01-09 03:31:00,24.2,18.0,30.67,NNW,332,2.0,3.0,78,0.00,,,0.00,weatherlink.com 1.10,2013-01-09 08:31:00,
2013-01-09 03:46:00,24.1,19.0,30.67,NNW,332,2.0,3.0,79,0.00,,,0.00,weatherlink.com 1.10,2013-01-09 08:46:00,
2013-01-09 04:01:00,24.2,19.0,30.67,NNW,333,0.0,2.0,79,0.00,,,0.00,weatherlink.com 1.10,2013-01-09 09:01:00,
2013-01-09 04:16:00,24.0,18.0,30.66,NNW,335,3.0,3.0,78,0.00,,,0.00,weatherlink.com 1.10,2013-01-09 09:16:00,
2013-01-09 04:31:00,23.9,18.0,30.66,NNW,334,2.0,3.0,78,0.00,,,0.00,weatherlink.com 1.10,2013-01-09 09:31:00,
2013-01-09 04:46:00,24.4,18.0,30.66,NNW,334,2.0,2.0,77,0.00,,,0.00,weatherlink.com 1.10,2013-01-09 09:46:00,
2013-01-09 05:01:00,24.2,18.0,30.66,NNW,335,2.0,2.0,78,0.00,,,0.00,weatherlink.com 1.10,2013-01-09 10:01:00,
2013-01-09 05:16:00,24.5,18.0,30.66,NNW,331,3.0,3.0,77,0.00,,,0.00,weatherlink.com 1.10,2013-01-09 10:16:00,
2013-01-09 05:31:00,24.5,18.0,30.66,NNW,330,2.0,3.0,76,0.00,,,0.00,weatherlink.com 1.10,2013-01-09 10:31:00,
2013-01-09 05:46:00,24.7,18.0,30.65,WNW,293,0.0,3.0,76,0.00,,,0.00,weatherlink.com 1.10,2013-01-09 10:46:00,
2013-01-09 06:01:00,24.4,18.0,30.66,NNW,338,1.0,2.0,77,0.00,,,0.00,weatherlink.com 1.10,2013-01-09 11:01:00,
2013-01-09 06:16:00,24.4,18.0,30.66,North,352,1.0,4.0,77,0.00,,,0.00,weatherlink.com 1.10,2013-01-09 11:16:00,
2013-01-09 06:31:00,24.2,18.0,30.66,NNW,344,2.0,2.0,77,0.00,,,0.00,weatherlink.com 1.10,2013-01-09 11:31:00,
2013-01-09 06:46:00,24.5,18.0,30.66,NNW,334,0.0,4.0,77,0.00,,,0.00,weatherlink.com 1.10,2013-01-09 11:46:00,
2013-01-09 07:01:00,24.8,19.0,30.66,NNW,335,1.0,3.0,77,0.00,,,0.00,weatherlink.com 1.10,2013-01-09 12:01:00,
2013-01-09 07:16:00,25.3,19.0,30.66,NNW,332,1.0,2.0,77,0.00,,,0.00,weatherlink.com 1.10,2013-01-09 12:16:00,
2013-01-09 07:31:00,26.1,19.0,30.65,North,350,2.0,2.0,73,0.00,,,0.00,weatherlink.com 1.10,2013-01-09 12:31:00,
2013-01-09 07:46:00,26.3,18.0,30.65,NW,312,1.0,1.0,72,0.00,,,0.00,weatherlink.com 1.10,2013-01-09 12:46:00,
2013-01-09 08:01:00,26.2,19.0,30.65,NW,315,0.0,2.0,74,0.00,,,0.00,weatherlink.com 1.10,2013-01-09 13:01:00,
2013-01-09 08:16:00,26.3,20.0,30.66,NW,326,0.0,2.0,76,0.00,,,0.00,weatherlink.com 1.10,2013-01-09 13:16:00,
2013-01-09 08:31:00,28.8,20.0,30.66,NNE,27,2.0,3.0,70,0.00,,,0.00,weatherlink.com 1.10,2013-01-09 13:31:00,
2013-01-09 08:46:00,28.1,20.0,30.66,North,5,3.0,3.0,72,0.00,,,0.00,weatherlink.com 1.10,2013-01-09 13:46:00,
2013-01-09 09:01:00,28.3,21.0,30.65,NNW,333,1.0,3.0,74,0.00,,,0.00,weatherlink.com 1.10,2013-01-09 14:01:00,
2013-01-09 09:16:00,29.3,22.0,30.65,WNW,300,2.0,2.0,73,0.00,,,0.00,weatherlink.com 1.10,2013-01-09 14:16:00,
2013-01-09 09:31:00,32.1,22.0,30.63,North,360,2.0,2.0,66,0.00,,,0.00,weatherlink.com 1.10,2013-01-09 14:31:00,
2013-01-09 09:47:00,34.1,23.0,30.62,NNW,347,1.0,4.0,65,0.00,,,0.00,weatherlink.com 1.10,2013-01-09 14:47:00,
2013-01-09 10:02:00,34.3,23.0,30.62,West,277,1.0,3.0,64,0.00,,,0.00,weatherlink.com 1.10,2013-01-09 15:02:00,
2013-01-09 10:17:00,36.0,25.0,30.61,SW,226,0.0,1.0,65,0.00,,,0.00,weatherlink.com 1.10,2013-01-09 15:17:00,
2013-01-09 10:32:00,36.6,25.0,30.59,NW,314,0.0,5.0,63,0.00,,,0.00,weatherlink.com 1.10,2013-01-09 15:32:00,
2013-01-09 10:47:00,38.4,25.0,30.55,SW,217,0.0,4.0,58,0.00,,,0.00,weatherlink.com 1.10,2013-01-09 15:47:00,
2013-01-09 11:02:00,39.1,25.0,30.57,SW,215,4.0,4.0,58,0.00,,,0.00,weatherlink.com 1.10,2013-01-09 16:02:00,
2013-01-09 11:17:00,38.4,24.0,30.53,SSW,201,3.0,7.0,56,0.00,,,0.00,weatherlink.com 1.10,2013-01-09 16:17:00,
2013-01-09 11:32:00,39.9,25.0,30.53,East,89,2.0,26.0,55,0.00,,,0.00,weatherlink.com 1.10,2013-01-09 16:32:00,
2013-01-09 11:47:00,40.9,26.0,30.53,SW,224,5.0,17.0,55,0.00,,,0.00,weatherlink.com 1.10,2013-01-09 16:47:00,
2013-01-09 12:02:00,41.6,26.0,30.54,East,79,1.0,14.0,55,0.01,,,0.01,weatherlink.com 1.10,2013-01-09 17:02:00,
2013-01-09 12:17:00,41.6,28.0,30.54,NNE,27,2.0,7.0,58,0.01,,,0.01,weatherlink.com 1.10,2013-01-09 17:17:00,
2013-01-09 12:32:00,41.5,28.0,30.55,East,82,5.0,13.0,59,0.01,,,0.01,weatherlink.com 1.10,2013-01-09 17:32:00,
2013-01-09 12:47:00,41.4,28.0,30.52,SW,214,1.0,16.0,59,0.01,,,0.01,weatherlink.com 1.10,2013-01-09 17:47:00,
2013-01-09 13:02:00,41.4,28.0,30.49,NE,34,1.0,7.0,60,0.00,,,0.01,weatherlink.com 1.10,2013-01-09 18:02:00,
2013-01-09 13:17:00,41.6,28.0,30.45,SW,221,1.0,14.0,60,0.00,,,0.01,weatherlink.com 1.10,2013-01-09 18:17:00,
2013-01-09 13:32:00,41.9,29.0,30.43,SSE,158,3.0,17.0,61,0.01,,,0.02,weatherlink.com 1.10,2013-01-09 18:32:00,
2013-01-09 13:47:00,42.8,29.0,30.41,SE,141,3.0,7.0,59,0.01,,,0.02,weatherlink.com 1.10,2013-01-09 18:47:00,
2013-01-09 14:02:00,43.0,30.0,30.42,SW,221,4.0,11.0,60,0.01,,,0.02,weatherlink.com 1.10,2013-01-09 19:02:00,
2013-01-09 14:17:00,43.2,31.0,30.41,SSW,211,12.0,12.0,63,0.01,,,0.02,weatherlink.com 1.10,2013-01-09 19:17:00,
2013-01-09 14:32:00,42.9,32.0,30.41,West,267,1.0,9.0,65,0.00,,,0.02,weatherlink.com 1.10,2013-01-09 19:32:00,
2013-01-09 14:47:00,42.9,32.0,30.40,South,189,6.0,12.0,66,0.00,,,0.02,weatherlink.com 1.10,2013-01-09 19:47:00,
2013-01-09 15:02:00,43.1,33.0,30.39,SSW,213,21.0,21.0,67,0.00,,,0.02,weatherlink.com 1.10,2013-01-09 20:02:00,
2013-01-09 15:17:00,43.9,34.0,30.40,South,170,3.0,18.0,68,0.00,,,0.02,weatherlink.com 1.10,2013-01-09 20:17:00,
2013-01-09 15:32:00,43.7,34.0,30.40,SSW,201,2.0,14.0,69,0.00,,,0.02,weatherlink.com 1.10,2013-01-09 20:32:00,
2013-01-09 15:47:00,43.5,34.0,30.39,East,90,7.0,20.0,70,0.00,,,0.02,weatherlink.com 1.10,2013-01-09 20:47:00,
2013-01-09 16:02:00,43.1,34.0,30.40,NNE,22,1.0,15.0,70,0.00,,,0.02,weatherlink.com 1.10,2013-01-09 21:02:00,
2013-01-09 16:17:00,42.1,34.0,30.39,South,180,1.0,16.0,72,0.00,,,0.02,weatherlink.com 1.10,2013-01-09 21:17:00,
2013-01-09 16:32:00,41.3,33.0,30.38,SE,124,7.0,16.0,73,0.00,,,0.02,weatherlink.com 1.10,2013-01-09 21:32:00,
2013-01-09 16:47:00,40.6,33.0,30.38,SSE,166,3.0,15.0,73,0.00,,,0.02,weatherlink.com 1.10,2013-01-09 21:47:00,
2013-01-09 17:02:00,40.1,32.0,30.38,WNW,290,3.0,8.0,73,0.00,,,0.02,weatherlink.com 1.10,2013-01-09 22:02:00,
2013-01-09 17:17:00,39.8,32.0,30.38,NNW,346,2.0,11.0,73,0.00,,,0.02,weatherlink.com 1.10,2013-01-09 22:17:00,
2013-01-09 17:32:00,39.5,32.0,30.39,South,173,3.0,16.0,73,0.00,,,0.02,weatherlink.com 1.10,2013-01-09 22:32:00,
2013-01-09 17:47:00,39.3,31.0,30.39,SW,217,4.0,11.0,73,0.00,,,0.02,weatherlink.com 1.10,2013-01-09 22:47:00,
2013-01-09 18:03:00,39.2,31.0,30.41,East,84,4.0,9.0,73,0.00,,,0.02,weatherlink.com 1.10,2013-01-09 23:03:00,
2013-01-09 18:18:00,39.1,31.0,30.40,SSW,204,1.0,11.0,73,0.00,,,0.02,weatherlink.com 1.10,2013-01-09 23:18:00,
2013-01-09 18:33:00,39.3,31.0,30.41,NE,34,2.0,15.0,72,0.00,,,0.02,weatherlink.com 1.10,2013-01-09 23:33:00,
2013-01-09 18:48:00,39.4,31.0,30.41,NE,53,3.0,14.0,72,0.00,,,0.02,weatherlink.com 1.10,2013-01-09 23:48:00,
2013-01-09 19:18:00,38.9,31.0,30.40,SW,217,2.0,12.0,73,0.00,,,0.02,weatherlink.com 1.10,2013-01-10 00:18:00,
2013-01-09 19:33:00,38.5,31.0,30.40,SW,232,1.0,12.0,74,0.00,,,0.02,weatherlink.com 1.10,2013-01-10 00:33:00,
2013-01-09 19:48:00,38.4,31.0,30.40,SSE,165,8.0,11.0,74,0.00,,,0.02,weatherlink.com 1.10,2013-01-10 00:48:00,
2013-01-09 20:03:00,38.0,31.0,30.41,SSE,162,6.0,8.0,75,0.00,,,0.02,weatherlink.com 1.10,2013-01-10 01:03:00,
2013-01-09 20:18:00,37.6,31.0,30.41,SE,136,3.0,9.0,76,0.00,,,0.02,weatherlink.com 1.10,2013-01-10 01:18:00,
2013-01-09 20:33:00,37.2,30.0,30.41,South,177,6.0,10.0,76,0.00,,,0.02,weatherlink.com 1.10,2013-01-10 01:33:00,
2013-01-09 20:48:00,37.1,30.0,30.41,ESE,108,2.0,12.0,75,0.00,,,0.02,weatherlink.com 1.10,2013-01-10 01:48:00,
2013-01-09 21:03:00,36.9,30.0,30.42,SW,214,4.0,11.0,75,0.00,,,0.02,weatherlink.com 1.10,2013-01-10 02:03:00,
2013-01-09 21:18:00,36.8,29.0,30.42,SSW,204,4.0,13.0,72,0.00,,,0.02,weatherlink.com 1.10,2013-01-10 02:18:00,
2013-01-09 21:33:00,36.6,27.0,30.42,South,186,8.0,13.0,67,0.00,,,0.02,weatherlink.com 1.10,2013-01-10 02:33:00,
2013-01-09 21:48:00,36.8,25.0,30.43,SW,219,8.0,15.0,63,0.00,,,0.02,weatherlink.com 1.10,2013-01-10 02:48:00,
2013-01-09 22:03:00,36.6,25.0,30.44,SSW,207,8.0,18.0,63,0.00,,,0.02,weatherlink.com 1.10,2013-01-10 03:03:00,
2013-01-09 22:18:00,36.5,24.0,30.45,SW,218,10.0,16.0,60,0.00,,,0.02,weatherlink.com 1.10,2013-01-10 03:18:00,
2013-01-09 22:33:00,36.6,24.0,30.45,SSW,200,3.0,16.0,60,0.00,,,0.02,weatherlink.com 1.10,2013-01-10 03:33:00,
2013-01-09 22:48:00,36.6,23.0,30.43,SW,228,16.0,23.0,59,0.00,,,0.02,weatherlink.com 1.10,2013-01-10 03:48:00,
2013-01-09 23:03:00,36.6,24.0,30.44,SSE,150,15.0,18.0,61,0.00,,,0.02,weatherlink.com 1.10,2013-01-10 04:03:00,
2013-01-09 23:48:00,36.2,26.0,30.46,SW,215,9.0,18.0,66,0.00,,,0.02,weatherlink.com 1.10,2013-01-10 04:48:00,